SCP
0 0 0 0 0 0 0 -0 -0 -0 0 0 0 0 0 0 0 0 0 0 0 0 0 -0 -0 -0 -0 -0 -0 -0 0 0 0 0 0 0 0 0
0 0 0 0 0 0 0 0 0 0 0 0 0 0 0 0 0 0 0 0 0 0 0 0 -0 -0 -0 -0 -0 -0 0 0 0 0 0 0 0 0
0 0 0 0 0 0 0 0 0 0 0 0 0 0 0 0 0 0 0 0 0 0 0 -0 -0 -0 -0 -0 0 0 0 0 0 0 0 0 0 0
0 0 0 0 0 0 0 -0 0 0 0 0 -0 0 0 0 0 0 0 0 0 0 -0 -0 -0 -0 0 0 0 0 0 0 0 0 0 0 0 0
0 0 0 0 0 0 -0 0 0 0 0 -0 -0 -0 0 0 0 0 0 0 0 0 -0 -0 -0 -0 0 0 0 0 0 0 0 0 0 0 0 0
0 0 0 0 0 -0 0 0 0 0 -0 -0 -0 -0 -0 0 0 0 0 0 0 0 0 0 -0 0 0 0 0 0 0 0 0 0 0 0 0 0
0 0 0 0 0 0 0 0 0 0 0 0 0 -0 -0 -0 -0 -0 0 0 0 0 0 0 0 0 0 0 0 0 0 0 0 0 0 0 0 0
0 0 0 0 0 0 0 0 0 0 0 0 0 0 0 0 0 0 0 0 0 0 0 0 0 0 0 0 0 0 0 0 0 0 0 0 0 0
0 0 0 0 0 0 0 -0 0 -0 0 0 0 0 0 0 0 0 0 0 0 0 0 0 0 0 0 0 0 0 0 0 0 0 0 0 0 0
0 0 0 0 0 0 0 0 0 0 0 0 0 0 0 0 0 0 0 0 0 0 0 0 0 0 0 0 0 0 0 0 0 0 0 0 0 0
0 0 0 0 0 0 0 0 0 0 0 0 0 0 0 0 0 0 0 0 0 0 0 0 0 0 0 0 0 0 0 0 0 0 0 0 0 0
0 0 0 0 0 0 0 0 0 0 0 0 0 0 0 0 0 0 0 0 0 0 0 0 0 0 0 0 0 0 0 0 0 0 0 0 0 0
0 0 0 0 0 0 0 0 0 0 0 0 0 0 0 0 0 0 0 0 0 0 0 0 0 0 0 0 0 0 0 0 0 0 0 0 0 0
0 0 0 0 0 0 0 0 0 0 0 0 0 0 0 0 0 0 0 0 0 0 0 0 0 0 0 0 0 0 0 0 0 0 0 0 0 0
0 0 0 0 0 0 0 0 0 0 0 0 0 0 0 0 0 0 0 0 0 0 0 0 0 0 0 0 0 0 0 0 0 0 0 0 0 0
0 0 0 0 0 0 0 0 0 0 0 0 0 0 0 0 0 0 0 0 0 0 0 0 0 0 0 0 0 0 0 0 0 0 0 0 0 0
0 0 0 0 0 0 0 0 0 0 0 0 0 0 0 0 0 0 0 0 0 0 0 0 0 0 0 0 0 0 0 0 0 0 0 0 0 0
0 0 0 0 0 0 0 0 0 0 0 0 0 0 0 0 0 0 0 0 0 0 0 0 0 0 0 0 0 0 0 0 0 0 0 0 0 0
0 0 0 0 0 0 0 0 0 0 0 0 0 0 0 0 0 0 0 0 0 0 0 0 0 0 0 0 0 0 0 0 0 0 0 0 0 0
0 0 0 0 0 0 0 0 0 0 0 0 0 0 0 0 0 0 0 0 0 0 0 0 0 0 0 0 0 0 0 0 0 0 0 0 0 0
0 0 0 0 0 0 0 0 0 0 0 0 0 0 0 0 0 0 0 0 0 0 0 0 0 0 0 0 0 0 0 0 0 0 0 0 0 0
0 0 0 0 0 0 0 0 0 0 0 0 0 0 0 0 0 0 0 0 0 0 0 0 0 0 0 0 0 0 0 0 0 0 0 0 0 0
0 0 0 0 0 0 0 0 0 0 0 0 0 0 0 0 0 0 0 0 0 0 0 0 0 0 0 0 0 0 0 0 0 0 0 0 0 0
Wind_Speed_500mb
53 55 49 37 25 25 14 13 7 11 15 16 18 20 18 13 12 6 6 8 6 7 5 6 6 6 5 2 4 13 14 21 25 29 33 38 39 42
31 52 60 47 35 19 16 16 13 9 10 17 21 21 16 15 13 10 12 13 9 11 7 9 8 9 8 4 3 6 14 17 21 25 30 32 36 39
35 36 40 50 45 29 23 19 17 18 13 16 22 21 17 16 16 13 16 13 13 15 14 9 9 11 12 9 6 5 10 14 17 21 25 29 33 35
33 43 39 42 34 37 26 21 20 15 15 14 15 21 22 23 22 23 21 18 14 15 16 12 13 15 17 15 9 5 6 10 13 17 21 25 27 31
39 33 33 31 30 31 34 27 18 16 12 12 14 19 25 23 25 25 24 21 16 15 16 16 15 19 18 17 13 10 8 8 11 14 17 20 24 27
33 32 29 29 26 25 29 22 18 14 12 11 14 13 15 23 25 26 28 24 18 19 19 18 17 17 18 19 17 15 13 10 12 13 15 17 19 22
28 31 23 21 21 21 23 21 16 13 13 14 14 16 19 24 26 25 24 25 25 27 25 24 23 20 19 21 20 19 17 15 14 12 14 16 17 19
18 17 22 23 20 18 15 14 13 12 13 16 19 21 14 15 19 22 25 31 32 30 32 29 27 26 24 24 23 22 21 19 17 13 15 15 15 17
19 20 21 19 15 13 13 17 17 18 17 17 18 21 19 17 22 26 30 31 36 32 28 28 28 32 27 28 26 25 24 22 19 17 15 14 14 15
23 24 20 18 17 15 14 12 12 12 13 16 21 23 24 23 22 26 30 34 37 38 39 40 34 29 30 31 31 29 25 23 23 21 17 16 16 16
20 16 12 10 8 5 6 6 10 12 15 18 20 22 25 26 29 30 33 34 38 43 41 46 47 39 34 34 35 35 32 29 27 26 24 22 21 21
12 11 8 6 1 3 9 12 16 18 20 23 24 26 28 31 32 32 35 37 38 37 36 45 49 41 30 32 33 38 41 37 34 32 31 29 29 29
6 4 1 2 5 9 14 17 18 19 20 22 24 26 27 28 29 32 36 40 44 42 38 31 32 32 38 43 36 26 29 38 43 42 42 39 38 38
1 3 5 7 10 14 16 19 22 24 27 27 27 27 28 28 28 30 33 38 42 44 45 50 55 48 48 49 44 42 37 38 42 44 45 46 46 45
6 8 11 13 16 18 20 23 26 28 29 30 30 30 30 30 32 33 34 36 40 43 45 50 58 61 59 61 60 59 57 53 50 50 48 50 55 58
8 10 13 16 19 21 23 24 25 28 30 32 32 33 33 33 35 36 37 39 42 42 42 47 53 61 67 67 68 72 71 68 67 65 64 66 67 69
8 10 13 15 17 19 21 23 25 27 29 32 34 36 36 36 37 39 41 42 44 46 46 43 44 51 61 66 74 75 75 74 73 74 77 75 72 71
5 8 12 16 20 23 24 25 26 29 31 33 34 36 37 38 39 40 40 43 45 45 48 47 50 53 58 61 63 66 64 65 62 64 66 69 70 66
10 17 22 24 27 29 31 32 32 33 34 36 38 39 40 40 41 42 42 44 46 48 48 48 51 52 57 63 63 60 61 60 59 63 63 65 68 62
18 20 20 21 22 24 25 26 27 29 31 32 32 33 34 37 38 38 40 43 46 49 52 51 52 52 55 59 61 63 59 65 69 72 72 75 77 73
16 13 11 12 14 16 19 23 25 25 28 31 32 34 35 37 38 38 40 40 42 44 47 47 44 45 52 58 68 71 58 49 55 61 65 68 72 73
6 7 10 11 12 14 16 19 22 24 27 28 30 31 33 35 38 40 40 43 43 45 48 50 47 45 48 53 61 65 65 60 51 53 56 58 63 63
3 5 8 10 13 16 18 20 22 25 27 30 33 35 38 39 38 38 40 41 43 45 47 50 50 51 52 54 57 62 63 60 57 57 55 55 59 62
Wind_Direction_500mb
199 201 205 200 183 178 170 172 159 168 208 223 228 238 236 221 230 196 186 245 252 286 293 239 230 207 151 110 7 29 25 35 30 20 21 24 22 20
198 200 204 208 213 199 187 198 227 249 217 229 224 239 222 215 217 198 209 252 260 280 262 233 217 190 183 203 356 8 30 25 24 13 18 20 22 22
204 194 209 216 226 214 208 216 244 234 248 241 231 229 223 219 220 217 227 253 268 285 275 272 223 217 213 222 249 355 16 18 14 7 11 14 20 18
206 200 200 210 213 226 216 221 221 239 250 248 254 236 223 218 220 225 226 236 250 285 282 268 245 229 226 228 242 289 337 360 355 357 2 11 13 16
189 191 191 201 216 219 225 221 229 249 231 236 251 238 228 228 233 237 234 242 252 280 278 264 239 226 227 232 243 262 287 315 325 343 351 1 7 11
200 201 193 201 207 221 204 215 238 226 248 232 236 240 239 242 240 242 243 251 257 271 270 270 257 245 233 235 243 257 271 290 303 322 332 346 357 4
163 175 179 185 184 202 225 233 239 254 218 224 240 246 256 244 246 248 249 257 258 261 259 265 270 267 255 247 251 258 266 274 283 299 312 328 343 353
165 165 193 176 186 189 196 217 220 233 225 235 242 255 263 264 252 248 247 253 258 267 264 265 271 271 265 259 259 261 260 261 270 282 293 309 330 340
143 159 168 172 193 190 191 200 203 216 227 232 249 264 270 265 258 258 256 258 264 268 274 270 273 268 266 263 260 260 258 255 259 262 272 290 309 325
150 157 163 169 170 180 196 208 233 248 265 270 269 268 260 256 257 258 258 261 266 264 262 269 270 273 267 261 258 255 252 256 256 256 258 269 284 300
150 143 152 160 168 192 243 261 269 277 279 279 279 279 277 275 271 267 261 265 267 268 264 267 271 279 279 269 259 251 247 247 248 252 255 260 270 284
117 122 117 117 91 316 310 307 307 304 301 295 292 288 288 286 280 275 269 264 264 271 272 262 270 273 287 279 267 253 251 247 250 253 259 265 271 277
102 98 105 328 305 307 307 306 305 304 303 304 300 296 293 291 287 284 280 273 271 262 258 269 277 278 267 268 275 281 272 260 256 257 260 264 268 274
272 310 317 313 307 310 312 312 310 308 307 305 303 301 298 296 294 290 284 280 279 274 270 260 264 267 271 276 276 274 275 270 267 266 267 267 266 271
334 326 320 313 309 307 306 305 302 301 301 300 301 302 302 301 297 293 287 281 277 276 273 269 266 268 268 272 276 277 279 275 274 274 274 274 277 276
291 291 289 289 290 293 295 296 296 294 294 296 298 299 299 299 298 295 293 289 284 280 277 273 271 269 271 272 275 277 278 278 278 279 278 275 273 274
295 299 299 298 298 299 300 301 302 301 302 304 305 307 307 304 303 302 301 299 297 296 293 286 281 275 272 274 276 279 282 283 285 285 283 280 277 277
306 313 319 319 317 315 313 313 312 311 311 312 313 314 313 312 309 307 305 305 304 302 300 298 294 289 283 278 280 287 287 288 289 288 287 287 284 282
324 321 314 311 313 319 322 323 324 325 324 323 322 321 318 316 315 314 314 313 311 309 306 304 301 299 297 292 291 289 289 288 287 286 287 287 289 287
319 319 318 325 331 334 334 334 336 336 335 335 333 332 329 326 325 323 319 315 312 308 306 307 309 309 302 301 296 291 294 294 293 291 290 290 288 285
333 329 341 346 352 355 355 351 349 350 348 347 346 345 342 339 336 333 330 329 327 325 322 322 318 311 307 304 297 303 303 296 292 291 294 294 293 292
341 358 9 8 12 13 11 6 359 357 355 354 351 349 348 346 343 340 338 335 333 329 325 325 324 321 318 315 313 315 316 313 303 291 286 285 288 285
99 56 41 26 27 26 20 11 3 359 356 353 350 348 344 342 339 337 335 335 334 332 330 328 326 324 321 318 316 316 318 319 318 312 303 299 291 285
Wind_Speed_850mb
53 55 49 37 25 25 14 13 7 11 15 16 18 20 18 13 12 6 6 8 6 7 5 6 6 6 5 2 4 13 14 21 25 29 33 38 39 42
31 52 60 47 35 19 16 16 13 9 10 17 21 21 16 15 13 10 12 13 9 11 7 9 8 9 8 4 3 6 14 17 21 25 30 32 36 39
35 36 40 50 45 29 23 19 17 18 13 16 22 21 17 16 16 13 16 13 13 15 14 9 9 11 12 9 6 5 10 14 17 21 25 29 33 35
33 43 39 42 34 37 26 21 20 15 15 14 15 21 22 23 22 23 21 18 14 15 16 12 13 15 17 15 9 5 6 10 13 17 21 25 27 31
39 33 33 31 30 31 34 27 18 16 12 12 14 19 25 23 25 25 24 21 16 15 16 16 15 19 18 17 13 10 8 8 11 14 17 20 24 27
33 32 29 29 26 25 29 22 18 14 12 11 14 13 15 23 25 26 28 24 18 19 19 18 17 17 18 19 17 15 13 10 12 13 15 17 19 22
28 31 23 21 21 21 23 21 16 13 13 14 14 16 19 24 26 25 24 25 25 27 25 24 23 20 19 21 20 19 17 15 14 12 14 16 17 19
18 17 22 23 20 18 15 14 13 12 13 16 19 21 14 15 19 22 25 31 32 30 32 29 27 26 24 24 23 22 21 19 17 13 15 15 15 17
19 20 21 19 15 13 13 17 17 18 17 17 18 21 19 17 22 26 30 31 36 32 28 28 28 32 27 28 26 25 24 22 19 17 15 14 14 15
23 24 20 18 17 15 14 12 12 12 13 16 21 23 24 23 22 26 30 34 37 38 39 40 34 29 30 31 31 29 25 23 23 21 17 16 16 16
20 16 12 10 8 5 6 6 10 12 15 18 20 22 25 26 29 30 33 34 38 43 41 46 47 39 34 34 35 35 32 29 27 26 24 22 21 21
12 11 8 6 1 3 9 12 16 18 20 23 24 26 28 31 32 32 35 37 38 37 36 45 49 41 30 32 33 38 41 37 34 32 31 29 29 29
6 4 1 2 5 9 14 17 18 19 20 22 24 26 27 28 29 32 36 40 44 42 38 31 32 32 38 43 36 26 29 38 43 42 42 39 38 38
1 3 5 7 10 14 16 19 22 24 27 27 27 27 28 28 28 30 33 38 42 44 45 50 55 48 48 49 44 42 37 38 42 44 45 46 46 45
6 8 11 13 16 18 20 23 26 28 29 30 30 30 30 30 32 33 34 36 40 43 45 50 58 61 59 61 60 59 57 53 50 50 48 50 55 58
8 10 13 16 19 21 23 24 25 28 30 32 32 33 33 33 35 36 37 39 42 42 42 47 53 61 67 67 68 72 71 68 67 65 64 66 67 69
8 10 13 15 17 19 21 23 25 27 29 32 34 36 36 36 37 39 41 42 44 46 46 43 44 51 61 66 74 75 75 74 73 74 77 75 72 71
5 8 12 16 20 23 24 25 26 29 31 33 34 36 37 38 39 40 40 43 45 45 48 47 50 53 58 61 63 66 64 65 62 64 66 69 70 66
10 17 22 24 27 29 31 32 32 33 34 36 38 39 40 40 41 42 42 44 46 48 48 48 51 52 57 63 63 60 61 60 59 63 63 65 68 62
18 20 20 21 22 24 25 26 27 29 31 32 32 33 34 37 38 38 40 43 46 49 52 51 52 52 55 59 61 63 59 65 69 72 72 75 77 73
16 13 11 12 14 16 19 23 25 25 28 31 32 34 35 37 38 38 40 40 42 44 47 47 44 45 52 58 68 71 58 49 55 61 65 68 72 73
6 7 10 11 12 14 16 19 22 24 27 28 30 31 33 35 38 40 40 43 43 45 48 50 47 45 48 53 61 65 65 60 51 53 56 58 63 63
3 5 8 10 13 16 18 20 22 25 27 30 33 35 38 39 38 38 40 41 43 45 47 50 50 51 52 54 57 62 63 60 57 57 55 55 59 62
Wind_Direction_850mb
199 201 205 200 183 178 170 172 159 168 208 223 228 238 236 221 230 196 186 245 252 286 293 239 230 207 151 110 7 29 25 35 30 20 21 24 22 20
198 200 204 208 213 199 187 198 227 249 217 229 224 239 222 215 217 198 209 252 260 280 262 233 217 190 183 203 356 8 30 25 24 13 18 20 22 22
204 194 209 216 226 214 208 216 244 234 248 241 231 229 223 219 220 217 227 253 268 285 275 272 223 217 213 222 249 355 16 18 14 7 11 14 20 18
206 200 200 210 213 226 216 221 221 239 250 248 254 236 223 218 220 225 226 236 250 285 282 268 245 229 226 228 242 289 337 360 355 357 2 11 13 16
189 191 191 201 216 219 225 221 229 249 231 236 251 238 228 228 233 237 234 242 252 280 278 264 239 226 227 232 243 262 287 315 325 343 351 1 7 11
200 201 193 201 207 221 204 215 238 226 248 232 236 240 239 242 240 242 243 251 257 271 270 270 257 245 233 235 243 257 271 290 303 322 332 346 357 4
163 175 179 185 184 202 225 233 239 254 218 224 240 246 256 244 246 248 249 257 258 261 259 265 270 267 255 247 251 258 266 274 283 299 312 328 343 353
165 165 193 176 186 189 196 217 220 233 225 235 242 255 263 264 252 248 247 253 258 267 264 265 271 271 265 259 259 261 260 261 270 282 293 309 330 340
143 159 168 172 193 190 191 200 203 216 227 232 249 264 270 265 258 258 256 258 264 268 274 270 273 268 266 263 260 260 258 255 259 262 272 290 309 325
150 157 163 169 170 180 196 208 233 248 265 270 269 268 260 256 257 258 258 261 266 264 262 269 270 273 267 261 258 255 252 256 256 256 258 269 284 300
150 143 152 160 168 192 243 261 269 277 279 279 279 279 277 275 271 267 261 265 267 268 264 267 271 279 279 269 259 251 247 247 248 252 255 260 270 284
117 122 117 117 91 316 310 307 307 304 301 295 292 288 288 286 280 275 269 264 264 271 272 262 270 273 287 279 267 253 251 247 250 253 259 265 271 277
102 98 105 328 305 307 307 306 305 304 303 304 300 296 293 291 287 284 280 273 271 262 258 269 277 278 267 268 275 281 272 260 256 257 260 264 268 274
272 310 317 313 307 310 312 312 310 308 307 305 303 301 298 296 294 290 284 280 279 274 270 260 264 267 271 276 276 274 275 270 267 266 267 267 266 271
334 326 320 313 309 307 306 305 302 301 301 300 301 302 302 301 297 293 287 281 277 276 273 269 266 268 268 272 276 277 279 275 274 274 274 274 277 276
291 291 289 289 290 293 295 296 296 294 294 296 298 299 299 299 298 295 293 289 284 280 277 273 271 269 271 272 275 277 278 278 278 279 278 275 273 274
295 299 299 298 298 299 300 301 302 301 302 304 305 307 307 304 303 302 301 299 297 296 293 286 281 275 272 274 276 279 282 283 285 285 283 280 277 277
306 313 319 319 317 315 313 313 312 311 311 312 313 314 313 312 309 307 305 305 304 302 300 298 294 289 283 278 280 287 287 288 289 288 287 287 284 282
324 321 314 311 313 319 322 323 324 325 324 323 322 321 318 316 315 314 314 313 311 309 306 304 301 299 297 292 291 289 289 288 287 286 287 287 289 287
319 319 318 325 331 334 334 334 336 336 335 335 333 332 329 326 325 323 319 315 312 308 306 307 309 309 302 301 296 291 294 294 293 291 290 290 288 285
333 329 341 346 352 355 355 351 349 350 348 347 346 345 342 339 336 333 330 329 327 325 322 322 318 311 307 304 297 303 303 296 292 291 294 294 293 292
341 358 9 8 12 13 11 6 359 357 355 354 351 349 348 346 343 340 338 335 333 329 325 325 324 321 318 315 313 315 316 313 303 291 286 285 288 285
99 56 41 26 27 26 20 11 3 359 356 353 350 348 344 342 339 337 335 335 334 332 330 328 326 324 321 318 316 316 318 319 318 312 303 299 291 285